Ban Baen Chado, Thailand

4:40 PM +07 on June 29, 2017 (GMT +0700)
นวมินทร์ 74 แยก 3-8-21 | | Change Station

Elev 13 ft 13.81 °N, 100.67 °E | Updated 11 minutes ago

Thunderstorm
Thunderstorm
90.3 °F
Feels Like 105 °F
N
0.6
Wind Variable Wind from South
Gusts 1.9 mph

Today
High -- | Low -- °F
--% Chance of Precip.
Yesterday
High -- | Low -- °F
Precip. -- in
Pressure 29.68 in
Visibility 4.3 miles
Clouds Few 2000 ft
Scattered Clouds 3500 ft
Mostly Cloudy 10000 ft
Heat Index 105 °F
Dew Point 79 °F
Humidity 68%
Rainfall 0.00 in
Snow Depth Not available.
5:52 AM 6:48 PM
Waxing Crescent, 34% visible
METAR VTBD 290930Z 00000KT 7000 -RA FEW020CB SCT035 BKN100 29/27 Q1005 RETSRA NOSIG
Pressure 29.68 in
Visibility 4.3 miles
Clouds Few 2000 ft
Scattered Clouds 3500 ft
Mostly Cloudy 10000 ft
Heat Index 105 °F
Dew Point 79 °F
Humidity 68%
Rainfall 0.00 in
Snow Depth Not available.
5:52 AM 6:48 PM
Waxing Crescent, 34% visible
METAR VTBD 290930Z 00000KT 7000 -RA FEW020CB SCT035 BKN100 29/27 Q1005 RETSRA NOSIG

Get Severe Weather Alerts

Thanks for signing up!

Be on the lookout for a verification email in your inbox.

You'll start receiving the daily forecast at 6 AM.

×

10-Day Weather Forecast

No radar image for this location.
×

Almanac

Astronomy

Jun. 29, 2017 Rise Set
Actual Time
Civil Twilight
Nautical Twilight
Astronomical Twilight
Moon
Length of Visible Light
Length of Day
Tomorrow will be .
, % of the Moon is Illuminated

Today's Extremes

Country Highs Country Lows

Community

WunderPhotos

Category 6

Welcome to Category 6. This is the collective home for Weather Underground's featured writeups by Dr. Jeff Masters (right), Bob Henson (left), Chris Burt, and other regular contributors.

Nearby

Air Quality

  Air Quality AQ Index Pollutant
Not available.

Snow Depth

Station Depth Elevation

Earthquake Activity

City Distance Mag. Time & Date
Minimum magnitude displayed is 2.5.

Coastal Water Temperatures

Place Temperature

Stations

Nearby Weather Stations

Station Location Temp. Windchill Dew Point Humidity Wind Precip. Elev Updated Type